Home > Weather > Saguenay > Past weeks

Flag for Canada Weather for the Past 2 Weeks in Saguenay, Quebec, Canada

Now
56 °F

Refreshingly cool.


Feels Like: 56 °F
Forecast: 34 / 66 °F
Wind: 5 mph from Northeast

Location: Jonquiere Airport

Current Time: May 6, 2016 at 11:30:35 AM

Latest Report: May 6, 2016 at 11:00 AM


Visibility: N/A

Pressure: 29.94 "Hg

Humidity: 45%

Dew Point: 35 °F

Location of SaguenayLocation

Historic Weather in Saguenay — Graph

°F

Saguenay Temperature Yesterday

Maximum temperature yesterday: 60 °F (at 4:00 PM)
Minimum temperature yesterday: 31 °F (at 6:00 AM)
Average temperature yesterday: 48 °F

High & Low Weather Summary for the Past Weeks

 TemperatureHumidityPressure
High66 °F (Apr 21, 4:00 PM)100% (Apr 22, 5:00 PM)30.35 "Hg (Apr 22, 5:00 PM)
Low17 °F (Apr 28, 6:00 AM)18% (Apr 21, 4:00 PM)29.80 "Hg (Apr 22, 4:00 PM)
Average38 °F56%30.04 "Hg
* Reported Apr 21 10:00 AM — May 6 10:00 AM, Saguenay, Weather by CustomWeather, © 2016

Note: Actual official high and low records may vary slightly from our data, if they occured in-between our weather recording intervals... More about our weather records

Advertising

Saguenay Weather History for the Previous 24 Hours

Scroll right to see more
 ConditionsComfort  
Time TempWeatherWind HumidityBarometerVisibility
10:00 AM
Fri, May 6
53 °FCool.1 mph52%29.94 "HgN/A
9:00 AM47 °FCool.3 mph64%29.94 "HgN/A
8:00 AM42 °FQuite cool.3 mph74%29.94 "HgN/A
7:00 AM38 °FChilly.6 mph78%29.93 "HgN/A
6:00 AM31 °FChilly.5 mph95%29.92 "HgN/A
5:00 AM33 °FChilly.2 mph94%29.92 "HgN/A
4:00 AM34 °FChilly.3 mph89%29.91 "HgN/A
3:00 AM35 °FChilly.5 mph88%29.92 "HgN/A
2:00 AM38 °FChilly.5 mph77%29.92 "HgN/A
1:00 AM40 °FChilly.3 mph73%29.93 "HgN/A
12:00 AM43 °FQuite cool.9 mph64%29.93 "HgN/A
11:00 PM
Thu, May 5
45 °FQuite cool.5 mph58%29.95 "HgN/A
10:00 PM47 °FCool.6 mph53%29.94 "HgN/A
9:00 PM50 °FCool.10 mph52%29.94 "HgN/A
8:00 PM53 °FCool.8 mph44%29.93 "HgN/A
7:00 PM56 °FRefreshingly cool.10 mph38%29.93 "HgN/A
6:00 PM59 °FRefreshingly cool.9 mph35%29.93 "HgN/A
5:00 PM59 °FRefreshingly cool.8 mph33%29.93 "HgN/A
4:00 PM60 °FRefreshingly cool.6 mph34%29.94 "HgN/A
3:00 PM59 °FRefreshingly cool.10 mph33%29.96 "HgN/A
2:00 PM59 °FRefreshingly cool.8 mph35%29.97 "HgN/A
1:00 PM57 °FRefreshingly cool.7 mph38%29.98 "HgN/A
12:00 PM55 °FRefreshingly cool.7 mph47%29.98 "HgN/A
11:00 AM56 °FRefreshingly cool.9 mph52%30.00 "HgN/A
Weather by CustomWeather, © 2016

See weather overviewHow to use our weather pages